| time (UTC) | temp F | wind direction | speed knots | gust knots | rain 1hr in | rain 24hr in | rain mn in | humidity % | barometer mb |
| 20260508163117 | 41 | 309 | 2.6 | 5.2 | 0.00 | 0.80 | 0.01 | 86 | 1002.0 |
| 20260508161556 | 41 | 353 | 0.9 | 5.2 | 0.00 | 0.80 | 0.01 | 85 | 1002.1 |
| 20260508160053 | 41 | 347 | 1.7 | 5.2 | 0.00 | 0.80 | 0.01 | 86 | 1002.1 |
| 20260508154554 | 41 | 26 | 2.6 | 5.2 | 0.00 | 0.80 | 0.01 | 85 | 1002.1 |
| 20260508153054 | 42 | 350 | 3.5 | 7.0 | 0.00 | 0.80 | 0.01 | 86 | 1002.1 |
| 20260508151548 | 42 | 5 | 1.7 | 7.8 | 0.00 | 0.80 | 0.01 | 86 | 1001.9 |
| 20260508150045 | 42 | 336 | 2.6 | 5.2 | 0.00 | 0.80 | 0.01 | 86 | 1002.1 |
| 20260508144544 | 42 | 355 | 2.6 | 4.3 | 0.00 | 0.80 | 0.01 | 86 | 1002.1 |
| 20260508143042 | 41 | 288 | 1.7 | 4.3 | 0.00 | 0.80 | 0.01 | 85 | 1002.3 |
| 20260508141541 | 42 | 344 | 1.7 | 3.5 | 0.00 | 0.80 | 0.01 | 85 | 1002.5 |
| 20260508140039 | 42 | 324 | 1.7 | 4.3 | 0.00 | 0.80 | 0.01 | 86 | 1002.5 |
| 20260508134542 | 42 | 321 | 1.7 | 3.5 | 0.00 | 0.80 | 0.01 | 86 | 1002.6 |
| 20260508133045 | 44 | 286 | 1.7 | 3.5 | 0.00 | 0.80 | 0.01 | 86 | 1002.5 |
| 20260508131545 | 44 | 347 | 1.7 | 3.5 | 0.00 | 0.80 | 0.01 | 86 | 1002.4 |
| 20260508130047 | 43 | 338 | 0.0 | 2.6 | 0.00 | 0.80 | 0.01 | 86 | 1002.2 |
| 20260508124536 | 44 | 360 | 0.9 | 3.5 | 0.00 | 0.80 | 0.01 | 86 | 1002.0 |
| 20260508123038 | 44 | 343 | 1.7 | 4.3 | 0.00 | 0.80 | 0.01 | 86 | 1001.9 |
| 20260508121536 | 43 | 5 | 0.9 | 3.5 | 0.00 | 0.80 | 0.01 | 86 | 1002.0 |
| 20260508120034 | 44 | 360 | 0.0 | 3.5 | 0.00 | 0.80 | 0.01 | 86 | 1002.0 |
| 20260508114533 | 43 | 5 | 0.9 | 2.6 | 0.00 | 0.81 | 0.01 | 86 | 1001.8 |
| 20260508113040 | 43 | 22 | 0.0 | 0.9 | 0.00 | 0.81 | 0.01 | 86 | 1001.8 |
| 20260508111535 | 42 | 22 | 0.0 | 1.7 | 0.00 | 0.81 | 0.01 | 86 | 1002.1 |
| 20260508110046 | 42 | 79 | 0.0 | 0.9 | 0.00 | 0.81 | 0.01 | 86 | 1002.1 |
| 20260508104531 | 41 | 79 | 0.0 | 1.7 | 0.00 | 0.81 | 0.01 | 85 | 1002.4 |
| 20260508103036 | 40 | 79 | 0.0 | 1.7 | 0.00 | 0.81 | 0.01 | 85 | 1002.2 |
| 20260508101536 | 41 | 79 | 0.0 | 0.9 | 0.00 | 0.81 | 0.01 | 85 | 1002.2 |
| 20260508100030 | 41 | 79 | 0.0 | 0.9 | 0.01 | 0.81 | 0.01 | 85 | 1002.2 |
| 20260508094529 | 40 | 79 | 0.0 | 0.9 | 0.01 | 0.81 | 0.01 | 85 | 1001.8 |
| 20260508093043 | 41 | 79 | 0.0 | 0.0 | 0.01 | 0.81 | 0.01 | 85 | 1001.8 |
| 20260508091531 | 41 | 79 | 0.0 | 0.9 | 0.01 | 0.81 | 0.01 | 85 | 1001.6 |
| 20260508090034 | 40 | 79 | 0.0 | 0.9 | 0.00 | 0.80 | 0.00 | 85 | 1001.7 |
| 20260508084527 | 40 | 79 | 0.0 | 0.0 | 0.00 | 0.80 | 0.00 | 85 | 1001.7 |
| 20260508083027 | 40 | 79 | 0.0 | 0.9 | 0.00 | 0.80 | 0.00 | 85 | 1001.4 |
| 20260508081523 | 40 | 79 | 0.0 | 0.0 | 0.00 | 0.80 | 0.00 | 85 | 1001.4 |
| 20260508080033 | 41 | 79 | 0.0 | 1.7 | 0.00 | 0.80 | 0.00 | 85 | 1001.4 |
| 20260508074528 | 43 | 85 | 0.9 | 2.6 | 0.00 | 0.80 | 0.00 | 85 | 1001.4 |
| 20260508073023 | 43 | 106 | 0.0 | 1.7 | 0.00 | 0.80 | 0.00 | 85 | 1001.5 |
| 20260508071520 | 43 | 106 | 0.0 | 0.0 | 0.00 | 0.80 | 0.00 | 85 | 1001.5 |
| 20260508070018 | 44 | 106 | 0.0 | 0.9 | 0.00 | 0.80 | 0.00 | 86 | 1001.6 |
| 20260508064516 | 44 | 105 | 0.0 | 2.6 | 0.00 | 0.80 | 0.00 | 85 | 1001.6 |
| 20260508063016 | 43 | 95 | 2.6 | 7.0 | 0.00 | 0.80 | 0.00 | 86 | 1001.5 |
| 20260508061514 | 43 | 83 | 0.0 | 4.3 | 0.00 | 0.80 | 0.00 | 85 | 1001.7 |
| 20260508060013 | 42 | 341 | 0.0 | 4.3 | 0.00 | 0.80 | 0.00 | 85 | 1001.7 |
| 20260508054511 | 42 | 37 | 0.9 | 4.3 | 0.00 | 0.80 | 0.00 | 85 | 1001.9 |
| 20260508053011 | 41 | 44 | 0.9 | 6.1 | 0.00 | 0.80 | 0.00 | 85 | 1002.1 |
| 20260508051508 | 41 | 10 | 0.0 | 3.5 | 0.00 | 0.80 | 0.00 | 85 | 1002.2 |
| 20260508050006 | 42 | 36 | 0.9 | 3.5 | 0.00 | 0.80 | 0.00 | 85 | 1002.0 |
| 20260508044502 | 43 | 5 | 0.9 | 2.6 | 0.00 | 0.80 | 0.00 | 85 | 1001.9 |
| 20260508043059 | 46 | 41 | 0.9 | 3.5 | 0.00 | 0.80 | 0.00 | 86 | 1001.8 |
| 20260508041600 | 45 | 20 | 0.0 | 1.7 | 0.00 | 0.80 | 0.00 | 86 | 1001.9 |
| 20260508040057 | 44 | 348 | 0.0 | 0.9 | 0.00 | 0.80 | 0.00 | 85 | 1002.0 |
| 20260508034601 | 45 | 348 | 0.0 | 2.6 | 0.00 | 0.80 | 0.00 | 85 | 1001.9 |
| 20260508033049 | 47 | 77 | 0.0 | 0.9 | 0.00 | 0.80 | 0.00 | 86 | 1002.0 |
| 20260508031556 | 48 | 74 | 1.7 | 6.1 | 0.00 | 0.80 | 0.00 | 86 | 1001.9 |
| 20260508030054 | 48 | 101 | 5.2 | 7.0 | 0.00 | 0.80 | 0.00 | 86 | 1001.9 |
| 20260508024541 | 48 | 103 | 4.3 | 7.0 | 0.00 | 0.80 | 0.80 | 86 | 1002.0 |
| 20260508023045 | 47 | 70 | 1.7 | 6.1 | 0.00 | 0.80 | 0.80 | 86 | 1002.2 |
| 20260508021538 | 47 | 81 | 0.9 | 5.2 | 0.01 | 0.80 | 0.80 | 86 | 1002.3 |
| 20260508020036 | 47 | 133 | 0.0 | 1.7 | 0.02 | 0.80 | 0.80 | 86 | 1002.2 |
| 20260508014536 | 46 | 31 | 0.0 | 0.0 | 0.03 | 0.80 | 0.80 | 86 | 1002.8 |
| 20260508013037 | 46 | 35 | 0.0 | 3.5 | 0.04 | 0.80 | 0.80 | 86 | 1002.6 |
| 20260508011535 | 46 | 232 | 0.0 | 0.9 | 0.05 | 0.79 | 0.79 | 86 | 1002.5 |
| 20260508010040 | 46 | 232 | 0.0 | 2.6 | 0.06 | 0.78 | 0.78 | 86 | 1002.5 |
| 20260508004533 | 47 | 232 | 0.0 | 1.7 | 0.07 | 0.76 | 0.76 | 86 | 1002.6 |
| 20260508003032 | 47 | 232 | 0.0 | 3.5 | 0.11 | 0.76 | 0.76 | 86 | 1002.5 |
| 20260508001534 | 47 | 203 | 1.7 | 4.3 | 0.10 | 0.74 | 0.74 | 87 | 1002.4 |
| 20260508000031 | 47 | 186 | 3.5 | 9.6 | 0.08 | 0.72 | 0.72 | 86 | 1002.3 |
| 20260507234626 | 49 | 255 | 5.2 | 10.4 | 0.05 | 0.69 | 0.69 | 86 | 1002.1 |
| 20260507233024 | 50 | 256 | 4.3 | 7.0 | 0.01 | 0.65 | 0.65 | 86 | 1001.7 |
| 20260507231522 | 51 | 176 | 4.3 | 12.2 | 0.00 | 0.64 | 0.64 | 86 | 1001.7 |
| 20260507230021 | 50 | 180 | 7.8 | 13.9 | 0.00 | 0.64 | 0.64 | 84 | 1001.8 |
| 20260507224523 | 55 | 151 | 9.6 | 13.9 | 0.00 | 0.64 | 0.64 | 84 | 1001.0 |
| 20260507223017 | 54 | 177 | 10.4 | 16.5 | 0.00 | 0.64 | 0.64 | 85 | 1000.5 |
| 20260507221522 | 54 | 131 | 11.3 | 17.4 | 0.00 | 0.64 | 0.64 | 85 | 1000.5 |
| 20260507220019 | 53 | 137 | 10.4 | 17.4 | 0.00 | 0.64 | 0.64 | 85 | 1000.7 |
| 20260507214514 | 53 | 128 | 9.6 | 14.8 | 0.00 | 0.64 | 0.64 | 85 | 1000.7 |
| 20260507213026 | 53 | 131 | 10.4 | 15.6 | 0.00 | 0.64 | 0.64 | 85 | 1000.7 |
| 20260507211513 | 53 | 123 | 13.9 | 20.0 | 0.00 | 0.64 | 0.64 | 85 | 1000.6 |
| 20260507210028 | 53 | 105 | 12.2 | 18.2 | 0.00 | 0.64 | 0.64 | 85 | 1000.6 |
| 20260507204510 | 53 | 135 | 12.2 | 20.9 | 0.01 | 0.64 | 0.64 | 86 | 1000.7 |
| 20260507203017 | 53 | 151 | 11.3 | 17.4 | 0.06 | 0.64 | 0.64 | 86 | 1001.0 |
| 20260507201514 | 54 | 103 | 11.3 | 17.4 | 0.12 | 0.64 | 0.64 | 86 | 1000.3 |
| 20260507200016 | 54 | 112 | 10.4 | 20.0 | 0.15 | 0.64 | 0.64 | 86 | 1000.3 |
| 20260507194506 | 54 | 114 | 11.3 | 17.4 | 0.17 | 0.63 | 0.63 | 86 | 1000.6 |
| 20260507193132 | 54 | 135 | 11.3 | 18.2 | 0.17 | 0.57 | 0.57 | 86 | 1001.2 |
| 20260507191601 | 54 | 131 | 13.9 | 22.6 | 0.15 | 0.51 | 0.51 | 86 | 1002.4 |
| 20260507190056 | 54 | 137 | 11.3 | 18.2 | 0.19 | 0.48 | 0.48 | 86 | 1002.6 |
| 20260507184555 | 54 | 122 | 11.3 | 20.0 | 0.26 | 0.46 | 0.46 | 86 | 1002.3 |
| 20260507183100 | 54 | 158 | 11.3 | 16.5 | 0.33 | 0.41 | 0.41 | 86 | 1003.1 |
| 20260507181551 | 54 | 137 | 11.3 | 22.6 | 0.34 | 0.36 | 0.36 | 86 | 1002.9 |
| 20260507180049 | 55 | 207 | 9.6 | 17.4 | 0.28 | 0.28 | 0.28 | 85 | 1003.6 |
| 20260507174547 | 55 | 187 | 8.7 | 16.5 | 0.19 | 0.20 | 0.20 | 85 | 1003.9 |
| 20260507173105 | 55 | 199 | 7.8 | 20.0 | 0.06 | 0.07 | 0.07 | 84 | 1003.7 |
| 20260507171545 | 56 | 141 | 7.8 | 18.2 | 0.01 | 0.02 | 0.02 | 84 | 1003.0 |
| 20260507170047 | 57 | 120 | 10.4 | 18.2 | 0.00 | 0.01 | 0.01 | 83 | 1002.6 |
| 20260507164541 | 58 | 176 | 15.6 | 27.8 | 0.00 | 0.01 | 0.01 | 82 | 1002.5 |